Weather History for Thermopolis, WY

Change the Weather History Date:

Tuesday, November 13, 2012

  Actual Average (KWRL) Record (KWRL)
Temperature  
Mean Temperature 28 °F 32 °F  
Max Temperature 32 °F 46 °F 70 °F (1999)
Min Temperature 24 °F 19 °F -10 °F (1978)
Degree Days  
Heating Degree Days 37 33  
Month to date heating degree days 382  
Since 1 July heating degree days 1244  
Cooling Degree Days 0 0  
Month to date cooling degree days 0  
Year to date cooling degree days 535  
Moisture  
Dew Point 18 °F    
Average Humidity 66    
Maximum Humidity 80    
Minimum Humidity 44    
Precipitation  
Precipitation 0.00 in 0.02 in 0.27 in (1991)
Month to date precipitation 0.17  
Year to date precipitation 7.16  
Sea Level Pressure  
Sea Level Pressure 30.24 in    
Wind  
Wind Speed 8 mph ()    
Max Wind Speed 18 mph    
Max Gust Speed 23 mph    
Visibility 10.0 miles    
Events      
T = Trace of Precipitation, MM = Missing Value Source: Averaged Metar Reports

Daily Weather History Graph

Daily Weather History Graph

Search for Another Location

Airport:

Trip Planner

Search our weather history database for the weather conditions in past years. The results will help you decide how hot, cold, wet, or windy it might be!

Date:

Astronomy

Nov. 13, 2012 Rise Set
Actual Time 7:04 AM MST 4:49 PM MST
Civil Twilight 6:33 AM MST 5:20 PM MST
Nautical Twilight 5:59 AM MST 5:54 PM MST
Astronomical Twilight 5:25 AM MST 6:28 PM MST
Moon 6:46 AM MST (11/13) 4:44 PM MST (11/13)
Length of Visible Light 10h 46m
Length of Day
9h 44m
Waning Crescent, 0% of the Moon is Illuminated
Nov 13
Waning Crescent
Nov 13
New
Nov 20
First Quarter
Nov 28
Full
Dec 6
Last Quarter

Hourly Weather History & Observations

Time (MST) Temp. Windchill Dew Point Humidity Pressure Visibility Wind Dir Wind Speed Gust Speed Precip Events Conditions
12:15 AM 28.4 °F 23.3 °F 14.0 °F 55% 30.20 in - South 4.6 mph - N/A   Overcast
12:35 AM 28.4 °F 22.2 °F 14.0 °F 55% 30.20 in - South 5.8 mph - N/A   Overcast
12:55 AM 28.4 °F 22.2 °F 14.0 °F 55% 30.21 in - South 5.8 mph - N/A   Overcast
1:15 AM 32.0 °F - 12.2 °F 44% 30.20 in - Calm Calm - N/A   Overcast
1:35 AM 24.8 °F 20.5 °F 15.8 °F 69% 30.20 in - SE 3.5 mph - N/A   Overcast
1:55 AM 24.8 °F - 15.8 °F 69% 30.20 in - Calm Calm - N/A   Overcast
2:15 AM 28.4 °F 23.3 °F 14.0 °F 55% 30.20 in - WNW 4.6 mph - N/A   Overcast
2:35 AM 28.4 °F 23.3 °F 15.8 °F 59% 30.21 in - West 4.6 mph - N/A   Overcast
2:55 AM 28.4 °F 23.3 °F 15.8 °F 59% 30.21 in - NW 4.6 mph - N/A   Overcast
3:15 AM 28.4 °F 18.0 °F 15.8 °F 59% 30.21 in - NW 12.7 mph - N/A   Mostly Cloudy
3:35 AM 26.6 °F 15.2 °F 15.8 °F 64% 30.22 in - WNW 13.8 mph - N/A   Mostly Cloudy
3:55 AM 26.6 °F 15.7 °F 15.8 °F 64% 30.21 in - NW 12.7 mph - N/A   Mostly Cloudy
4:15 AM 26.6 °F 15.2 °F 15.8 °F 64% 30.21 in - NW 13.8 mph - N/A   Scattered Clouds
4:35 AM 26.6 °F 18.2 °F 14.0 °F 59% 30.22 in - NNW 8.1 mph - N/A   Clear
4:55 AM 26.6 °F 18.2 °F 14.0 °F 59% 30.23 in - NNW 8.1 mph - N/A   Clear
5:35 AM 26.6 °F 19.1 °F 14.0 °F 59% 30.25 in - NNW 6.9 mph - N/A   Clear
5:55 AM 26.6 °F 18.2 °F 14.0 °F 59% 30.26 in - NNW 8.1 mph - N/A   Clear
6:15 AM 26.6 °F 19.1 °F 14.0 °F 59% 30.26 in - North 6.9 mph - N/A   Clear
6:35 AM 28.4 °F 19.7 °F 17.6 °F 64% 30.26 in - NNE 9.2 mph - N/A   Clear
6:55 AM 28.4 °F 23.3 °F 17.6 °F 64% 30.26 in - East 4.6 mph - N/A   Scattered Clouds
7:15 AM 24.8 °F 17.9 °F 17.6 °F 74% 30.27 in - SSE 5.8 mph - N/A   Mostly Cloudy
7:35 AM 30.2 °F 23.4 °F 17.6 °F 60% 30.26 in - SE 6.9 mph - N/A   Overcast
7:55 AM 30.2 °F 22.6 °F 17.6 °F 60% 30.27 in - ESE 8.1 mph - N/A   Mostly Cloudy
8:15 AM 28.4 °F 21.2 °F 17.6 °F 64% 30.28 in - SE 6.9 mph - N/A   Scattered Clouds
8:35 AM 28.4 °F 20.4 °F 17.6 °F 64% 30.28 in - ESE 8.1 mph - N/A   Clear
8:55 AM 26.6 °F 19.1 °F 15.8 °F 64% 30.28 in - SSE 6.9 mph - N/A   Clear
9:15 AM 28.4 °F 18.5 °F 17.6 °F 64% 30.28 in - SSE 11.5 mph - N/A   Clear
9:35 AM 26.6 °F 16.2 °F 17.6 °F 69% 30.27 in - SE 11.5 mph - N/A   Clear
9:55 AM 26.6 °F 14.3 °F 17.6 °F 69% 30.26 in - SE 16.1 mph - N/A   Clear
10:15 AM 26.6 °F 13.8 °F 17.6 °F 69% 30.26 in - SE 17.3 mph - N/A   Clear
10:35 AM 26.6 °F 13.4 °F 17.6 °F 69% 30.26 in - SE 18.4 mph - N/A   Clear
10:55 AM 28.4 °F 15.8 °F 17.6 °F 64% 30.27 in - SE 18.4 mph - N/A   Clear
11:15 AM 28.4 °F 18.0 °F 17.6 °F 64% 30.27 in - SE 12.7 mph - N/A   Clear
11:35 AM 28.4 °F 19.1 °F 17.6 °F 64% 30.27 in - SE 10.4 mph - N/A   Clear
12:15 PM 28.4 °F 19.7 °F 17.6 °F 64% 30.26 in - SE 9.2 mph - N/A   Clear
12:35 PM 30.2 °F 22.6 °F 17.6 °F 60% 30.26 in - SE 8.1 mph - N/A   Clear
12:55 PM 30.2 °F 21.9 °F 17.6 °F 60% 30.25 in - SE 9.2 mph - N/A   Clear
1:15 PM 30.2 °F 22.6 °F 17.6 °F 60% 30.26 in - SSE 8.1 mph - N/A   Clear
1:35 PM 30.2 °F 22.6 °F 19.4 °F 64% 30.25 in - South 8.1 mph - N/A   Clear
1:55 PM 30.2 °F 25.4 °F 19.4 °F 64% 30.25 in - South 4.6 mph - N/A   Clear
2:15 PM 30.2 °F 23.4 °F 19.4 °F 64% 30.25 in 10.0 mi SSW 6.9 mph - N/A   Clear
2:35 PM 30.2 °F 22.6 °F 21.2 °F 69% 30.24 in 10.0 mi SSE 8.1 mph - N/A   Clear
2:55 PM 28.4 °F 22.2 °F 21.2 °F 74% 30.25 in 10.0 mi SE 5.8 mph - N/A   Clear
3:15 PM 30.2 °F 23.4 °F 21.2 °F 69% 30.25 in 10.0 mi SSE 6.9 mph - N/A   Clear
3:35 PM 28.4 °F - 21.2 °F 74% 30.25 in 10.0 mi Calm Calm - N/A   Clear
3:55 PM 28.4 °F 23.3 °F 23.0 °F 80% 30.25 in 10.0 mi SE 4.6 mph - N/A   Clear
4:15 PM 28.4 °F 22.2 °F 21.2 °F 74% 30.26 in 10.0 mi SE 5.8 mph - N/A   Clear
4:35 PM 28.4 °F 24.6 °F 19.4 °F 69% 30.25 in 10.0 mi SE 3.5 mph - N/A   Clear
4:55 PM 30.2 °F 23.4 °F 19.4 °F 64% 30.25 in 10.0 mi SE 6.9 mph - N/A   Clear
5:15 PM 30.2 °F 22.6 °F 19.4 °F 64% 30.25 in 10.0 mi SSE 8.1 mph - N/A   Clear
5:35 PM 30.2 °F 22.6 °F 19.4 °F 64% 30.25 in 10.0 mi SSE 8.1 mph - N/A   Clear
5:55 PM 30.2 °F 21.3 °F 21.2 °F 69% 30.25 in 10.0 mi SSE 10.4 mph - N/A   Clear
6:15 PM 28.4 °F 18.5 °F 21.2 °F 74% 30.25 in 10.0 mi SSE 11.5 mph - N/A   Clear
6:35 PM 28.4 °F 23.3 °F 21.2 °F 74% 30.26 in 10.0 mi SE 4.6 mph - N/A   Clear
6:55 PM 28.4 °F 19.7 °F 19.4 °F 69% 30.25 in 10.0 mi SSE 9.2 mph - N/A   Clear
7:15 PM 28.4 °F 17.0 °F 21.2 °F 74% 30.24 in 10.0 mi SSE 15.0 mph 19.6 mph N/A   Clear
7:35 PM 28.4 °F 17.5 °F 21.2 °F 74% 30.24 in 10.0 mi SSE 13.8 mph 20.7 mph N/A   Clear
7:55 PM 28.4 °F 17.0 °F 21.2 °F 74% 30.24 in 10.0 mi SSE 15.0 mph 19.6 mph N/A   Clear
8:15 PM 28.4 °F 17.0 °F 21.2 °F 74% 30.24 in 10.0 mi SSE 15.0 mph 21.9 mph N/A   Clear
8:35 PM 28.4 °F 16.2 °F 21.2 °F 74% 30.24 in 10.0 mi SSE 17.3 mph 23.0 mph N/A   Clear
8:55 PM 28.4 °F 16.6 °F 19.4 °F 69% 30.24 in 10.0 mi South 16.1 mph - N/A   Clear
9:15 PM 30.2 °F 19.3 °F 21.2 °F 69% 30.23 in 10.0 mi SSE 15.0 mph 20.7 mph N/A   Clear
9:35 PM 28.4 °F 16.2 °F 21.2 °F 74% 30.23 in 10.0 mi South 17.3 mph - N/A   Clear
9:55 PM 30.2 °F 18.1 °F 21.2 °F 69% 30.24 in 10.0 mi South 18.4 mph - N/A   Clear
10:15 PM 30.2 °F 18.5 °F 21.2 °F 69% 30.23 in 10.0 mi SSE 17.3 mph - N/A   Clear
10:35 PM 32.0 °F 21.6 °F 21.2 °F 64% 30.23 in 10.0 mi SSE 15.0 mph - N/A   Clear
10:55 PM 32.0 °F 22.1 °F 21.2 °F 64% 30.23 in 10.0 mi South 13.8 mph - N/A   Clear
11:15 PM 30.2 °F 20.2 °F 21.2 °F 69% 30.23 in 10.0 mi SSE 12.7 mph - N/A   Clear
11:35 PM 28.4 °F 16.6 °F 21.2 °F 74% 30.22 in 10.0 mi South 16.1 mph 19.6 mph N/A   Clear
11:55 PM 30.2 °F 18.9 °F 21.2 °F 69% 30.22 in 10.0 mi SSE 16.1 mph 23.0 mph N/A   Clear